Home   Weather   Ciudad del Este   Past weeks

Flag for Paraguay Past Weather in Ciudad del Este, Paraguay — Yesterday and Last 2 Weeks

Now
84 °F

Sunny.


Feels Like: 83 °F
Forecast: 62 / 89 °F
Wind: 7 mph from South

Location: Foz Do Iguacu Aeroporto

Current Time: Oct 1, 2016 at 3:04:08 PM

Latest Report: Oct 1, 2016 at 2:00 PM


Visibility: 10 mi

Pressure: 30.01 "Hg

Humidity: 37%

Dew Point: 55 °F

Location of Ciudad del EsteLocation

Past Weather in Ciudad del Este — Graph

°F

Ciudad del Este Temperature Yesterday

Maximum temperature yesterday: 68 °F (at 7:00 AM)
Minimum temperature yesterday: 59 °F (at 4:00 AM)
Average temperature yesterday: 65 °F

High & Low Weather Summary for the Past Weeks

 TemperatureHumidityPressure
High90 °F (Sep 17, 3:00 PM)100% (Sep 18, 10:00 PM)30.21 "Hg (Sep 18, 10:00 PM)
Low45 °F (Sep 20, 5:00 AM)22% (Sep 28, 4:00 PM)29.83 "Hg (Sep 17, 3:00 PM)
Average69 °F65%30.01 "Hg
* Reported Sep 16 2:00 PM — Oct 1 2:00 PM, Ciudad del Este, Weather by CustomWeather, © 2016

Note: Actual official high and low records may vary slightly from our data, if they occured in-between our weather recording intervals... More about our weather records

Advertising

Ciudad del Este Weather History for the Previous 24 Hours

Scroll right to see more
 ConditionsComfort  
Time TempWeatherWind HumidityBarometerVisibility
2:00 PM
Sat, Oct 1
84 °FSunny.7 mph37%30.01 "Hg10 mi
1:00 PM84 °FSunny.5 mph45%30.04 "Hg10 mi
12:00 PM82 °FSunny.5 mph45%30.07 "Hg10 mi
11:00 AM81 °FSunny.5 mph51%30.09 "Hg10 mi
10:00 AM75 °FSunny.8 mph57%30.09 "Hg10 mi
9:00 AM72 °FSunny.9 mph65%30.09 "Hg10 mi
8:00 AM68 °FSunny.13 mph73%30.09 "Hg10 mi
7:00 AM64 °FSunny.12 mph88%30.07 "Hg10 mi
6:00 AM59 °FClear.6 mph100%30.07 "Hg5 mi
5:00 AM55 °FLight fog.1 mph100%30.04 "Hg2 mi
4:00 AM55 °FFog.3 mph100%30.01 "Hg1 mi
3:00 AM57 °FFog.2 mph100%29.98 "Hg3 mi
2:00 AM59 °FClear.2 mph100%29.95 "Hg4 mi
1:00 AM59 °FFog.3 mph100%29.95 "Hg1 mi
12:00 AM59 °FClear.2 mph100%29.98 "Hg6 mi
11:00 PM
Fri, Sep 30
59 °FFog.3 mph100%29.98 "Hg1 mi
10:00 PM61 °FClear.2 mph100%30.01 "Hg10 mi
9:00 PM61 °FClear.2 mph100%30.01 "Hg10 mi
8:00 PM63 °FClear.3 mph100%30.01 "Hg10 mi
7:00 PM64 °FPassing clouds.No wind94%29.98 "HgN/A
6:00 PM66 °FPassing clouds.5 mph88%29.92 "HgN/A
5:00 PM66 °FPartly sunny.No wind83%29.95 "HgN/A
4:00 PM68 °FBroken clouds.2 mph73%29.92 "HgN/A
3:00 PM68 °FBroken clouds.No wind73%29.95 "HgN/A
Weather by CustomWeather, © 2016

See weather overviewHow to use our weather pages